Find Starlink 32545

NORAD ID: 62135 Int'l Des: 2024-222 Owner: SPXS Country: US Constellation: starlink operational
LEOCIRCULAR

Live-Position

3D-Globus wird geladen...

Über Starlink 32545

Beschreibung wird geladen...

Nächste Überflüge

Passes for default location (London). Set your location on the main map for personalized predictions.

Höhenverlauf

Loading altitude history...

Zweizeiliger Elementsatz

1 62135U 24222X 26126.48660948 .00011398 00000-0 42299-3 0 9992
2 62135 42.9993 170.1709 0001721 279.3139 80.7518 15.27585838 81634
Epoch: 6. Mai 2026 • Age: 5 hours

Aktueller Status

Höhe 484.4 km
Geschwindigkeit 7.63 km/s
Subsatellitenpunkt 29.16°N, 166.76°W
Startdatum 27. Nov. 2024
Alter 1.4 years
Typ internet

Technische Details

Klassifizierung Payload
Masse 730.00 kg
Trockenmasse 700.00 kg
Gesamtmasse 730.00 kg
Länge 0.30 m
Durchmesser 4.10 m
Spannweite 29.00 m
Form Box + pan
Hersteller SPXS
Bus-Typ Starlink V2M
Phasenstatus In Orbit
Besitzer/Staat SPXS/US

Most Searched